RH
31 27 22 23 37 39 36 34 30 29 29 28 29 31 32 30 25 20 17 21 20 30 28 38 41 47 43 43 62 66 71 77 72 70 68 68 69 65 62 60 61 68 70 72 69
47 45 43 42 43 41 39 36 29 27 27 28 27 27 25 22 20 18 24 24 23 22 26 37 45 43 46 98 93 86 92 82 77 80 72 68 55 36 47 44 24 19 28 40 70
35 30 28 33 36 36 36 34 29 26 27 27 25 22 20 18 16 26 29 22 20 22 29 39 44 44 43 49 53 83 72 77 52 47 31 25 19 28 25 22 25 41 42 35 40
20 19 18 18 17 18 20 24 25 27 28 26 23 19 16 14 40 35 21 23 22 27 35 34 30 30 50 39 58 43 35 32 20 22 23 25 30 22 26 18 30 43 50 41 45
18 18 17 16 16 21 25 30 31 31 27 23 19 18 16 16 21 25 25 25 24 22 21 16 18 23 41 30 42 45 37 25 23 30 39 54 66 70 48 43 53 66 71 72 63
18 18 17 16 16 16 20 25 30 30 26 23 24 20 17 22 28 21 20 18 14 13 12 14 15 17 20 23 32 28 22 26 46 56 60 58 57 46 55 72 69 67 60 50 53
19 18 17 16 16 16 16 17 21 24 23 23 24 21 18 31 17 16 14 12 12 12 12 13 16 19 18 20 20 24 36 52 47 44 44 53 44 54 67 63 60 61 56 62 57
22 22 19 17 16 16 16 16 20 24 25 25 26 21 21 18 16 15 12 13 12 12 12 16 18 19 22 21 37 63 75 55 40 40 45 53 52 43 46 40 36 37 43 48 64
23 21 23 19 17 16 16 17 21 27 30 32 30 23 25 19 16 14 14 13 12 12 15 17 16 25 37 37 50 66 52 46 46 37 45 45 48 31 26 30 37 49 57 62 62
24 22 24 22 18 17 15 16 18 25 33 34 33 32 24 18 18 16 16 15 14 16 23 23 27 68 78 66 49 45 49 46 48 36 36 39 38 20 26 35 47 57 75 67 66
25 27 26 23 19 17 11 12 16 22 30 34 31 26 20 21 20 19 17 16 16 33 61 50 44 56 48 42 39 46 53 47 40 34 33 32 31 23 25 40 60 56 66 68 43
26 28 26 22 17 12 8 11 13 25 31 35 30 25 22 25 22 23 19 21 25 48 50 51 43 46 44 28 42 50 43 40 34 34 33 24 22 22 23 31 42 46 34 37 37
26 26 23 18 9 6 7 10 19 29 33 36 31 25 26 30 28 24 22 22 22 26 50 48 29 42 37 30 47 42 41 36 38 40 36 29 26 21 18 29 36 52 43 26 17
27 23 20 11 7 5 8 14 26 32 38 38 30 33 33 31 40 33 28 25 27 36 43 31 39 36 35 47 45 44 40 40 44 43 42 36 40 30 23 22 35 47 49 42 19
26 20 18 6 4 7 14 24 35 34 83 34 36 38 33 36 40 42 28 26 25 33 44 36 46 46 49 50 48 44 39 41 38 43 39 36 34 35 29 23 35 45 49 48 30
23 18 13 5 5 10 20 37 37 40 86 41 41 38 44 53 52 46 31 28 32 39 39 38 40 41 37 38 33 37 44 49 44 42 55 35 40 36 28 26 26 39 30 39 34
19 16 9 4 5 15 30 46 43 48 42 53 53 52 48 49 62 57 46 52 55 54 50 44 45 48 47 38 40 49 54 72 72 69 82 36 33 29 26 26 29 23 45 39 35
13 12 5 5 9 24 45 46 40 48 51 58 63 57 63 56 53 48 41 52 54 57 56 60 48 42 46 46 53 45 54 59 79 80 63 48 37 27 25 26 27 34 41 30 16
10 6 5 6 16 32 50 60 57 62 76 74 66 57 59 57 58 55 53 57 56 59 55 61 61 53 49 59 58 52 48 56 70 68 66 46 38 31 23 24 25 25 23 18 17
6 5 9 16 24 42 61 71 71 79 79 77 68 66 63 62 67 74 57 56 56 48 55 62 71 44 58 58 49 53 48 62 65 97 84 40 44 36 29 29 32 32 26 20 30
7 12 24 39 41 56 68 80 84 78 82 85 82 76 71 70 76 74 51 51 64 68 70 66 86 62 62 65 63 64 76 78 82 76 86 80 40 32 33 36 36 34 36 39 42
18 44 58 65 65 77 77 89 89 93 90 88 85 80 70 65 83 84 68 76 73 68 86 91 93 96 70 43 66 65 62 64 84 73 71 76 69 43 43 41 56 50 49 51 48
59 76 78 80 83 88 89 92 86 87 98 95 92 86 84 81 83 77 76 65 68 78 84 92 94 89 64 62 72 77 72 63 66 78 90 90 65 50 48 54 52 70 74 60 54
92 92 85 81 95 94 98 96 99 92 93 94 96 90 87 81 84 80 75 84 81 76 76 94 91 87 81 57 62 73 72 82 88 91 80 82 73 64 55 59 56 58 62 60 53
100 98 87 86 95 100 100 90 98 99 94 97 94 90 91 93 90 76 85 91 91 98 99 99 98 94 96 92 88 86 80 79 88 89 100 74 80 58 50 56 74 70 59 56 56
100 94 85 100 100 100 100 97 100 99 99 100 90 97 98 96 94 88 87 86 95 82 72 82 100 100 96 79 74 78 72 70 74 78 91 89 91 62 61 68 74 63 71 85 74
100 99 99 98 100 100 99 99 99 99 98 94 99 97 93 90 100 90 81 77 72 79 95 97 98 97 93 80 80 77 55 58 53 50 63 51 51 56 57 69 65 84 78 74 66
Wind_Speed
20 20 20 20 21 21 22 23 24 23 23 22 22 21 20 19 19 18 18 18 16 10 12 10 10 9 13 8 9 13 12 12 11 15 23 24 29 30 32 37 34 32 34 36 32
20 20 19 20 21 22 23 24 24 24 24 23 21 20 20 19 18 19 15 11 10 13 11 10 13 13 9 4 8 10 13 10 11 22 28 33 35 36 38 38 39 41 42 42 36
20 20 21 21 21 22 23 24 24 24 23 22 20 19 18 17 16 13 9 14 14 12 9 9 13 15 10 12 8 13 18 17 21 25 27 31 31 31 36 41 38 38 35 32 40
21 22 23 24 24 24 24 24 24 24 24 23 20 17 15 13 6 11 12 13 12 10 10 12 13 12 14 11 12 15 14 17 18 21 24 27 28 30 30 34 32 33 36 38 37
23 24 25 26 26 26 24 24 24 24 23 22 17 16 14 11 8 10 8 9 8 7 9 10 11 12 12 13 14 14 16 18 19 19 19 22 24 30 36 31 26 30 34 38 39
23 24 25 26 26 26 26 26 25 24 24 20 22 17 10 6 7 4 5 7 8 9 8 9 10 11 12 10 11 13 17 15 12 19 19 21 31 32 28 27 27 32 34 39 42
23 24 25 26 27 27 26 26 26 26 25 21 20 14 7 2 2 4 7 9 8 9 10 10 9 9 10 9 10 14 14 13 11 15 23 24 28 26 25 31 29 31 36 40 38
25 24 25 26 27 28 27 27 27 28 26 22 18 9 1 2 4 6 11 6 9 9 10 9 9 8 8 9 12 12 8 13 18 18 20 21 34 32 27 28 32 35 33 33 33
26 25 26 26 27 27 28 27 28 28 23 24 15 5 3 1 6 11 8 9 10 10 8 9 11 10 9 12 9 3 11 19 19 18 19 20 32 30 26 26 23 21 22 22 25
27 25 25 25 26 26 28 28 28 26 25 21 8 2 2 6 9 12 9 11 11 11 5 16 13 10 7 5 6 13 19 19 20 24 22 25 27 28 25 20 19 17 18 22 27
28 26 24 25 25 25 26 26 30 28 28 19 9 6 2 8 11 15 9 13 12 11 7 13 12 8 7 11 12 15 16 22 24 21 23 26 32 26 24 17 13 18 20 24 25
27 27 26 26 26 27 27 26 26 24 26 14 3 5 6 11 16 10 15 12 12 3 11 8 14 8 15 16 15 15 21 26 25 19 22 28 30 22 16 20 18 18 23 23 25
28 27 27 26 27 26 28 27 26 27 19 6 4 7 10 12 19 9 18 12 10 8 7 13 12 15 17 17 13 17 21 26 23 23 22 26 27 24 21 19 16 16 21 23 30
27 26 27 27 27 29 27 27 28 27 5 1 2 6 10 16 8 19 15 10 11 7 12 10 11 13 16 15 14 22 17 21 22 23 19 22 18 27 22 19 14 13 22 27 31
26 25 27 26 28 29 28 27 27 17 2 2 9 11 14 19 19 21 13 15 10 10 13 4 8 12 17 15 16 20 18 21 24 27 28 24 20 25 21 16 16 14 16 22 30
25 25 26 27 27 28 28 27 23 6 3 9 10 15 22 21 21 19 11 12 16 12 13 12 11 18 15 14 14 17 21 21 25 26 15 23 21 8 18 21 24 22 25 23 31
24 25 27 28 28 25 24 23 10 4 9 9 16 25 25 19 12 16 10 13 11 13 6 13 15 19 18 15 8 10 16 7 5 1 4 19 19 15 24 24 20 24 11 19 27
26 23 25 27 25 23 22 18 2 4 10 16 24 25 16 12 9 11 17 16 9 15 12 7 5 9 8 7 9 17 13 7 5 3 12 25 10 17 19 20 16 9 15 24 34
27 27 24 25 21 20 21 6 3 9 17 21 22 9 7 13 12 15 9 13 13 12 6 6 5 9 12 17 14 3 10 12 20 23 16 13 21 23 19 4 14 19 25 32 38
29 29 26 21 21 18 18 6 7 17 19 20 12 7 7 8 10 11 10 6 9 11 14 8 12 18 8 12 15 17 11 7 7 4 4 8 22 27 19 26 29 26 28 31 40
29 28 24 21 18 16 8 6 15 15 21 16 14 15 16 14 14 14 8 11 12 8 15 11 11 7 11 12 12 11 15 12 18 15 3 6 6 16 31 30 22 24 27 36 33
30 27 23 19 16 13 7 12 19 17 23 19 19 15 15 12 19 15 11 6 14 14 12 11 11 15 23 16 21 23 25 23 10 10 16 17 30 32 22 23 30 26 28 34 28
28 27 19 15 13 11 10 14 18 25 23 24 18 20 17 18 9 12 14 16 18 19 7 9 9 10 10 2 12 15 13 16 20 25 31 16 23 36 29 30 27 28 28 29 32
27 21 22 21 12 7 18 20 19 25 24 23 23 22 18 22 16 14 15 15 18 19 19 20 22 25 17 23 27 35 35 31 28 24 30 33 40 37 37 35 38 29 29 29 31
26 26 25 16 19 20 21 20 24 27 26 26 23 22 18 16 17 20 14 19 21 19 19 22 29 28 29 31 32 34 38 37 37 41 34 44 40 41 32 28 29 25 25 29 28
28 25 21 20 22 25 23 29 28 23 27 28 24 22 19 21 22 26 21 24 27 28 26 27 35 28 31 34 33 36 37 37 37 38 40 40 42 34 33 25 25 23 22 23 27
27 24 19 28 29 29 31 30 29 26 27 27 26 27 26 23 22 27 30 32 33 31 27 27 30 26 34 26 25 27 31 27 24 23 21 24 27 27 28 25 19 20 23 26 30
Wind_Direction
339 333 331 331 332 332 332 334 335 332 327 321 316 311 306 304 302 297 301 301 304 277 282 265 261 271 291 274 253 251 246 263 275 289 285 273 269 262 264 266 260 250 249 258 254
354 350 341 334 333 330 330 331 332 330 328 324 319 312 306 303 300 299 305 307 307 301 277 267 275 292 296 262 282 279 252 265 253 261 271 275 282 290 289 287 284 286 277 267 246
351 348 344 339 333 330 328 326 327 328 327 324 318 312 308 305 297 305 311 310 319 319 299 294 301 302 289 291 278 269 263 267 273 284 289 294 298 297 298 299 307 298 288 274 261
352 349 347 346 341 336 332 329 328 327 328 325 321 318 314 304 280 298 309 313 322 324 307 307 305 299 301 305 295 285 294 301 315 305 304 306 303 303 310 314 308 302 300 285 275
348 347 346 345 343 342 339 335 332 332 333 330 331 324 313 297 318 309 317 321 325 315 307 304 307 309 308 311 311 309 324 321 317 315 316 329 330 312 306 314 313 311 302 290 283
344 343 343 342 341 342 341 337 334 334 335 331 334 329 322 316 320 327 327 320 314 312 316 315 311 311 309 313 300 304 314 327 346 354 345 314 292 306 322 317 299 294 300 297 293
341 341 341 341 339 339 342 340 336 335 335 333 339 334 326 336 16 336 326 323 327 326 325 326 323 322 323 330 322 311 322 20 25 307 299 309 298 306 314 312 315 310 310 312 309
340 341 341 341 338 338 341 340 339 336 335 337 339 334 357 102 355 329 328 340 339 340 337 342 340 337 343 337 336 339 333 326 311 314 307 312 303 312 321 328 323 320 312 308 306
341 342 341 339 339 339 341 341 340 339 340 339 335 326 137 344 348 340 340 344 348 345 345 2 346 351 337 3 20 277 304 309 313 317 319 306 303 321 333 328 316 310 305 307 302
340 344 342 340 341 341 343 343 342 342 339 339 334 330 229 350 346 343 340 343 344 351 325 355 355 7 23 320 301 298 307 309 309 323 308 308 308 319 327 306 311 332 318 309 292
340 341 343 341 341 342 341 342 342 336 337 328 306 259 286 337 338 340 342 337 344 5 51 316 344 310 260 295 297 289 296 298 305 305 310 303 303 315 311 297 302 298 301 310 312
340 339 341 343 342 342 343 342 341 332 325 318 261 235 299 332 333 340 341 339 342 18 283 315 307 264 268 299 303 303 300 299 300 301 308 307 305 300 304 279 296 314 322 330 337
337 336 338 341 340 340 341 341 339 333 324 298 217 253 296 326 330 321 334 324 325 305 286 273 264 285 288 298 297 296 297 304 301 306 305 307 301 300 290 285 287 297 314 332 331
333 332 335 336 338 340 340 339 338 332 300 316 290 304 301 320 322 319 320 310 314 309 295 285 257 272 287 293 303 295 295 294 296 309 304 307 296 302 302 291 273 316 324 330 328
328 329 331 334 336 339 339 340 337 337 44 335 324 317 316 316 314 320 309 304 309 272 275 281 288 293 283 288 285 282 290 292 300 293 293 290 284 295 304 299 314 322 330 336 328
323 325 329 331 335 337 337 339 337 338 33 312 321 322 320 322 316 310 301 306 316 297 302 306 279 270 296 278 284 296 306 306 294 282 265 276 281 286 300 299 302 298 322 327 324
318 320 326 330 331 334 335 341 337 43 335 311 326 322 316 318 289 298 304 302 302 308 318 293 281 266 272 292 327 281 312 320 316 283 243 319 321 290 303 298 293 322 320 317 322
314 317 324 329 328 329 333 337 338 341 310 313 320 318 311 304 312 291 304 308 287 257 287 310 300 240 266 268 304 296 289 260 288 308 302 308 273 292 307 300 297 284 295 302 321
310 316 322 328 325 325 331 335 327 334 322 321 331 322 315 303 302 301 310 291 265 262 241 297 260 243 273 290 283 269 275 280 279 282 281 247 266 300 332 356 334 309 305 309 320
309 314 322 321 323 318 325 322 316 323 328 327 323 295 281 285 295 304 320 276 258 271 254 263 278 286 281 273 281 266 287 289 269 281 286 292 315 293 325 328 321 317 319 317 326
306 311 318 316 310 312 292 312 328 337 341 327 310 287 290 295 275 282 264 279 277 276 277 267 263 251 283 272 290 263 244 251 254 249 268 299 259 298 308 324 321 319 322 315 322
305 310 314 308 304 300 260 319 328 336 338 326 324 309 297 273 288 281 259 248 275 274 270 284 277 266 280 300 264 264 263 264 248 266 263 283 280 297 302 301 310 311 311 311 316
301 304 307 303 298 287 275 313 320 332 331 325 320 314 302 288 272 265 263 277 266 270 276 259 263 303 308 173 222 268 278 283 278 270 266 262 267 295 306 303 306 317 315 305 307
296 298 298 304 280 276 303 311 313 326 324 324 317 315 303 290 270 264 265 267 278 288 290 282 264 250 247 266 280 287 284 278 268 263 275 268 283 289 291 292 299 299 308 298 305
287 292 296 282 286 293 295 312 313 319 320 323 316 318 300 285 295 293 276 272 263 261 268 267 261 266 268 277 283 283 284 281 273 270 259 279 282 298 309 308 315 306 292 300 303
278 284 287 283 284 291 290 298 307 314 319 316 314 313 299 282 285 282 280 272 275 278 270 257 267 273 276 281 286 282 282 277 273 274 272 279 284 301 313 307 300 294 297 291 302
282 284 287 279 281 286 291 298 311 305 316 316 311 308 301 303 272 269 276 276 271 270 266 268 268 273 276 289 294 291 281 271 282 279 272 287 298 297 301 300 289 291 294 293 304